When you browse on this site, cookies collect data to enhance your experience and personalize the content and advertising you see.
Visit our Privacy Policy to learn more. By continuing to use the site, you agree to this use of cookies and data.
  • In Czech Republic
  • List of Countries
  • For 7 days
  • Water Temperature
  • Satellite Maps
  • Weather Map
  • Weather Widgets
  • user-avatar
    Login

    Hourly Weather Kalat

    Today, 22 March, Friday

    Time Temperature Precipitation Wind Pressure Humidity
    00:00 -16°C° 0 mm 2 mps 467 mmHg 77%
    01:00 -16°C° 0 mm 2 mps 467 mmHg 74%
    02:00 -17°C° 0 mm 2 mps 466 mmHg 72%
    03:00 -17°C° 0 mm 2 mps 466 mmHg 70%
    04:00 -17°C° 0 mm 2 mps 466 mmHg 68%
    05:00 -19°C° 0 mm 3 mps 466 mmHg 66%
    06:00 -17°C° 0 mm 3 mps 467 mmHg 65%
    07:00 -16°C° 0 mm 3 mps 468 mmHg 64%
    08:00 -14°C° 0 mm 3 mps 469 mmHg 63%
    09:00 -12°C° 0 mm 3 mps 471 mmHg 60%
    10:00 -9°C° 0 mm 3 mps 472 mmHg 57%
    11:00 -7°C° 0 mm 3 mps 473 mmHg 54%
    12:00 -6°C° 0.1 mm 3 mps 473 mmHg 57%
    13:00 -6°C° 0.1 mm 3 mps 473 mmHg 60%
    14:00 -6°C° 0.1 mm 3 mps 473 mmHg 63%
    15:00 -5°C° 0.1 mm 2 mps 473 mmHg 65%
    16:00 -5°C° 0.1 mm 2 mps 473 mmHg 67%
    17:00 -5°C° 0.1 mm 2 mps 472 mmHg 69%
    18:00 -7°C° 0.1 mm 2 mps 472 mmHg 73%
    19:00 -9°C° 0.1 mm 3 mps 471 mmHg 76%
    20:00 -10°C° 0.1 mm 3 mps 471 mmHg 80%
    21:00 -10°C° 0.3 mm 3 mps 471 mmHg 80%
    22:00 -10°C° 0.3 mm 3 mps 471 mmHg 81%
    23:00 -10°C° 0.3 mm 3 mps 471 mmHg 82%

    Tomorrow, 23 March, Saturday

    Time Temperature Precipitation Wind Pressure Humidity
    00:00 -12°C° 0.2 mm 3 mps 470 mmHg 82%
    01:00 -12°C° 0.2 mm 3 mps 470 mmHg 81%
    02:00 -13°C° 0.2 mm 3 mps 470 mmHg 80%
    03:00 -12°C° 0.1 mm 3 mps 470 mmHg 81%
    04:00 -12°C° 0.1 mm 3 mps 470 mmHg 81%
    05:00 -12°C° 0.1 mm 3 mps 470 mmHg 81%
    06:00 -12°C° 0.1 mm 3 mps 471 mmHg 81%
    07:00 -10°C° 0.1 mm 3 mps 471 mmHg 80%
    08:00 -10°C° 0.1 mm 3 mps 472 mmHg 79%
    09:00 -8°C° 0.2 mm 3 mps 472 mmHg 77%
    10:00 -7°C° 0.2 mm 3 mps 473 mmHg 75%
    11:00 -6°C° 0.2 mm 3 mps 474 mmHg 72%
    12:00 -5°C° 0.3 mm 3 mps 474 mmHg 71%
    13:00 -5°C° 0.3 mm 3 mps 474 mmHg 70%
    14:00 -5°C° 0.3 mm 3 mps 474 mmHg 68%
    15:00 -5°C° 0.2 mm 3 mps 474 mmHg 68%
    16:00 -4°C° 0.2 mm 2 mps 473 mmHg 67%
    17:00 -5°C° 0.2 mm 2 mps 473 mmHg 66%
    18:00 -6°C° 0 mm 1 mps 471 mmHg 70%
    19:00 -8°C° 0 mm 1 mps 470 mmHg 74%
    20:00 -10°C° 0 mm 1 mps 469 mmHg 78%
    21:00 -11°C° 0 mm 1 mps 468 mmHg 77%
    22:00 -11°C° 0 mm 1 mps 468 mmHg 76%
    23:00 -14°C° 0 mm 2 mps 468 mmHg 75%

    Day after tomorrow, 24 March, Sunday

    Time Temperature Precipitation Wind Pressure Humidity
    00:00 -15°C° 0 mm 2 mps 467 mmHg 74%
    01:00 -15°C° 0 mm 2 mps 467 mmHg 73%
    02:00 -16°C° 0 mm 2 mps 466 mmHg 72%
    03:00 -16°C° 0 mm 2 mps 466 mmHg 70%
    04:00 -17°C° 0 mm 2 mps 466 mmHg 69%
    05:00 -15°C° 0 mm 1 mps 465 mmHg 67%
    06:00 -14°C° 0 mm 1 mps 466 mmHg 64%
    07:00 -12°C° 0 mm 1 mps 468 mmHg 60%
    08:00 -11°C° 0 mm 1 mps 469 mmHg 56%
    09:00 -9°C° 0 mm 1 mps 470 mmHg 49%
    10:00 -7°C° 0 mm 1 mps 471 mmHg 41%
    11:00 -4°C° 0 mm 1 mps 473 mmHg 33%
    12:00 -5°C° 0 mm 2 mps 473 mmHg 37%
    13:00 -5°C° 0 mm 2 mps 473 mmHg 41%
    14:00 -4°C° 0 mm 2 mps 473 mmHg 45%
    15:00 -5°C° 0 mm 2 mps 473 mmHg 49%
    16:00 -5°C° 0 mm 2 mps 472 mmHg 54%
    17:00 -3°C° 0 mm 1 mps 472 mmHg 58%
    18:00 -6°C° 0 mm 1 mps 471 mmHg 60%
    19:00 -8°C° 0 mm 1 mps 469 mmHg 62%
    20:00 -11°C° 0 mm 1 mps 468 mmHg 64%
    21:00 -13°C° 0 mm 2 mps 468 mmHg 65%
    22:00 -14°C° 0 mm 2 mps 468 mmHg 66%
    23:00 -14°C° 0 mm 2 mps 467 mmHg 67%

    25 March, Monday

    Time Temperature Precipitation Wind Pressure Humidity
    00:00 -15°C° 0 mm 2 mps 467 mmHg 67%
    01:00 -15°C° 0 mm 2 mps 467 mmHg 67%
    02:00 -15°C° 0 mm 2 mps 466 mmHg 66%
    03:00 -16°C° 0 mm 2 mps 466 mmHg 64%
    04:00 -16°C° 0 mm 2 mps 466 mmHg 62%
    05:00 -16°C° 0 mm 2 mps 466 mmHg 59%
    06:00 -15°C° 0 mm 2 mps 467 mmHg 56%
    07:00 -13°C° 0 mm 2 mps 468 mmHg 53%
    08:00 -12°C° 0 mm 2 mps 469 mmHg 49%
    09:00 -8°C° 0 mm 2 mps 471 mmHg 45%
    10:00 -6°C° 0 mm 2 mps 472 mmHg 41%
    11:00 -4°C° 0 mm 2 mps 474 mmHg 36%
    12:00 -3°C° 0 mm 2 mps 474 mmHg 40%
    13:00 -4°C° 0 mm 3 mps 474 mmHg 44%
    14:00 -2°C° 0 mm 3 mps 474 mmHg 48%
    15:00 -2°C° 0 mm 3 mps 474 mmHg 53%
    16:00 -3°C° 0 mm 2 mps 474 mmHg 58%
    17:00 -3°C° 0 mm 2 mps 473 mmHg 63%
    18:00 -5°C° 0 mm 2 mps 472 mmHg 66%
    19:00 -7°C° 0 mm 2 mps 471 mmHg 69%
    20:00 -9°C° 0 mm 2 mps 470 mmHg 72%
    21:00 -10°C° 0 mm 2 mps 470 mmHg 72%
    22:00 -10°C° 0 mm 2 mps 470 mmHg 73%
    23:00 -12°C° 0 mm 2 mps 470 mmHg 73%

    26 March, Tuesday

    Time Temperature Precipitation Wind Pressure Humidity
    00:00 -12°C° 0 mm 2 mps 470 mmHg 72%
    01:00 -10°C° 0 mm 1 mps 469 mmHg 71%
    02:00 -10°C° 0 mm 1 mps 469 mmHg 70%
    03:00 -10°C° 0 mm 1 mps 469 mmHg 69%
    04:00 -10°C° 0 mm 1 mps 469 mmHg 68%
    05:00 -11°C° 0 mm 1 mps 469 mmHg 67%
    06:00 -9°C° 0 mm 1 mps 470 mmHg 67%
    07:00 -8°C° 0 mm 1 mps 471 mmHg 66%
    08:00 -6°C° 0 mm 1 mps 472 mmHg 66%
    09:00 -4°C° 0 mm 1 mps 473 mmHg 62%
    10:00 -2°C° 0 mm 1 mps 475 mmHg 58%
    11:00 0°C° 0 mm 1 mps 476 mmHg 54%
    12:00 +1°C° 0 mm 1 mps 476 mmHg 53%
    13:00 0°C° 0 mm 0 mps 476 mmHg 52%
    14:00 +1°C° 0 mm 0 mps 476 mmHg 51%
    15:00 +1°C° 0 mm 0 mps 476 mmHg 55%
    16:00 +2°C° 0 mm 1 mps 476 mmHg 58%
    17:00 +2°C° 0 mm 1 mps 476 mmHg 61%
    18:00 +1°C° 0 mm 1 mps 476 mmHg 63%
    19:00 -1°C° 0 mm 1 mps 475 mmHg 66%
    20:00 -2°C° 0 mm 1 mps 474 mmHg 68%
    21:00 -2°C° 0.1 mm 1 mps 474 mmHg 69%
    22:00 -4°C° 0.1 mm 2 mps 474 mmHg 69%
    23:00 -4°C° 0.1 mm 2 mps 474 mmHg 70%

    27 March, Wednesday

    Time Temperature Precipitation Wind Pressure Humidity
    00:00 -5°C° 0.1 mm 3 mps 474 mmHg 70%
    01:00 -6°C° 0.1 mm 3 mps 474 mmHg 70%
    02:00 -6°C° 0.1 mm 3 mps 473 mmHg 70%
    03:00 -6°C° 0.1 mm 3 mps 473 mmHg 72%
    04:00 -6°C° 0.1 mm 3 mps 473 mmHg 74%
    05:00 -6°C° 0.1 mm 3 mps 473 mmHg 76%
    06:00 -4°C° 0.1 mm 2 mps 473 mmHg 77%
    07:00 -4°C° 0.1 mm 2 mps 474 mmHg 78%
    08:00 -3°C° 0.1 mm 2 mps 475 mmHg 80%
    09:00 -1°C° 0.1 mm 2 mps 476 mmHg 81%
    10:00 +1°C° 0.1 mm 2 mps 476 mmHg 83%
    11:00 +2°C° 0.1 mm 2 mps 477 mmHg 84%
    12:00 +1°C° 0.2 mm 3 mps 477 mmHg 84%
    13:00 +2°C° 0.2 mm 3 mps 477 mmHg 85%
    14:00 +2°C° 0.2 mm 3 mps 477 mmHg 85%
    15:00 +2°C° 0.8 mm 3 mps 477 mmHg 84%
    16:00 +2°C° 0.8 mm 2 mps 476 mmHg 83%
    17:00 +1°C° 0.8 mm 2 mps 476 mmHg 83%
    18:00 +1°C° 0.7 mm 2 mps 475 mmHg 83%
    19:00 -1°C° 0.7 mm 2 mps 475 mmHg 84%
    20:00 -2°C° 0.7 mm 2 mps 475 mmHg 85%
    21:00 -2°C° 0.3 mm 2 mps 475 mmHg 85%
    22:00 -3°C° 0.3 mm 2 mps 474 mmHg 85%
    23:00 -3°C° 0.3 mm 2 mps 474 mmHg 86%
    Show more